This is the latest recevied weather packets stored in our database for station/object KA0EGE. If no packets are shown the sender has not sent any weather packets the latest 10 day(s).
| Time | Temp. | Humidity | Pressure | Rain* | Wind** | Luminosity | Snow |
|---|---|---|---|---|---|---|---|
| 1777422915 | 22.78° C | 88% | 1020.8 hPa | 0 mm | - | 0 W/m² | - |
| 1777422611 | 22.78° C | 88% | 1020.5 hPa | 0 mm | - | 0 W/m² | - |
| 1777422308 | 23.33° C | 88% | 1020.4 hPa | 0 mm | - | 1 W/m² | - |
| 1777422007 | 23.33° C | 87% | 1020.9 hPa | 0 mm | - | 1 W/m² | - |
| 1777421702 | 23.33° C | 87% | 1021 hPa | 0 mm | - | 2 W/m² | - |
| 1777421397 | 23.33° C | 86% | 1020.6 hPa | 0 mm | - | 5 W/m² | - |
| 1777421094 | 23.33° C | 86% | 1020.6 hPa | 0 mm | - | 9 W/m² | - |
| 1777420790 | 23.89° C | 85% | 1020.8 hPa | 0 mm | - | 14 W/m² | - |
| 1777420486 | 23.89° C | 84% | 1020.7 hPa | 0 mm | - | 20 W/m² | - |
| 1777420183 | 23.89° C | 83% | 1020.5 hPa | 0 mm | - | 23 W/m² | - |
| 1777419878 | 23.89° C | 84% | 1020.3 hPa | 0 mm | - | 30 W/m² | - |
| 1777419576 | 23.89° C | 83% | 1020.4 hPa | 0 mm | - | 37 W/m² | - |
| 1777419275 | 24.44° C | 83% | 1020.4 hPa | 0 mm | - | 43 W/m² | - |
| 1777418972 | 24.44° C | 83% | 1020.2 hPa | 0 mm | - | 53 W/m² | - |
| 1777418667 | 24.44° C | 83% | 1020.4 hPa | 0 mm | - | 64 W/m² | - |
| 1777418363 | 24.44° C | 82% | 1020.4 hPa | 0 mm | - | 77 W/m² | - |
| 1777418059 | 24.44° C | 82% | 1020.5 hPa | 0 mm | - | 91 W/m² | - |
| 1777417756 | 24.44° C | 82% | 1020.5 hPa | 0 mm | - | 102 W/m² | - |
| 1777417451 | 24.44° C | 82% | 1020.4 hPa | 0 mm | - | 113 W/m² | - |
| 1777417148 | 25° C | 81% | 1020.7 hPa | 0 mm | - | 121 W/m² | - |
| 1777416843 | 25° C | 81% | 1020.5 hPa | 0 mm | - | 121 W/m² | - |
| 1777416539 | 25° C | 80% | 1020.6 hPa | 0 mm | - | 121 W/m² | - |
| 1777416236 | 25° C | 80% | 1020.6 hPa | 0 mm | - | 127 W/m² | - |
| 1777415935 | 25° C | 80% | 1020.6 hPa | 0 mm | - | 135 W/m² | - |
| 1777415631 | 25.56° C | 79% | 1020.6 hPa | 0 mm | - | 135 W/m² | - |
* Rain latest hour (hover to see other rain measurements)
** Current wind speed in m/s (hover to see current wind gust speed)